Weather History for Greenville Downtown, SC

Change the Weather History Date:

Wednesday, September 19, 2012

  Actual Average Record
Temperature  
Mean Temperature 67 °F -  
Max Temperature 77 °F 78 °F 91 °F (2005)
Min Temperature 59 °F 60 °F 54 °F (2004)
Cooling Degree Days 2    
Growing Degree Days 17 (Base 50)    
Moisture  
Dew Point 55 °F    
Average Humidity 64    
Maximum Humidity 78    
Minimum Humidity 51    
Precipitation  
Precipitation 0.00 in - - ()
Sea Level Pressure  
Sea Level Pressure 30.02 in    
Wind  
Wind Speed 8 mph (NE)    
Max Wind Speed 12 mph    
Max Gust Speed -    
Visibility 10 miles    
Events      
Averages and records for this station are not official NWS values.
T = Trace of Precipitation, MM = Missing Value Source: NWS Daily Summary

Daily Weather History Graph

Daily Weather History Graph

Search for Another Location

Airport:

Trip Planner

Search our weather history database for the weather conditions in past years. The results will help you decide how hot, cold, wet, or windy it might be!

Date:

Astronomy

Sep. 19, 2012 Rise Set
Actual Time 7:15 AM EDT 7:29 PM EDT
Civil Twilight 6:50 AM EDT 7:55 PM EDT
Nautical Twilight 6:20 AM EDT 8:24 PM EDT
Astronomical Twilight 5:50 AM EDT 8:54 PM EDT
Moon 11:12 AM EDT (9/19) 9:51 PM EDT (9/19)
Length of Visible Light 13h 04m
Length of Day
12h 14m
Waxing Crescent, 17% of the Moon is Illuminated
Sep 19
Waxing Crescent
Sep 22
First Quarter
Sep 29
Full
Oct 8
Last Quarter
Oct 15
New

Hourly Weather History & Observations

Time (EDT) Temp. Dew Point Humidity Pressure Visibility Wind Dir Wind Speed Gust Speed Precip Events Conditions
12:53 AM 66.9 °F 57.9 °F 73% 29.89 in 10.0 mi North 11.5 mph - N/A   Mostly Cloudy
1:53 AM 64.9 °F 55.0 °F 70% 29.91 in 10.0 mi North 6.9 mph - N/A   Overcast
2:53 AM 63.0 °F 53.1 °F 70% 29.90 in 10.0 mi North 9.2 mph - N/A   Clear
3:53 AM 62.1 °F 51.1 °F 67% 29.91 in 10.0 mi North 8.1 mph - N/A   Clear
4:53 AM 61.0 °F 50.0 °F 67% 29.93 in 10.0 mi North 9.2 mph - N/A   Clear
5:53 AM 60.1 °F 50.0 °F 69% 29.94 in 10.0 mi North 8.1 mph - N/A   Clear
6:53 AM 60.1 °F 50.0 °F 69% 29.96 in 10.0 mi North 9.2 mph - N/A   Mostly Cloudy
7:53 AM 59.0 °F 51.1 °F 75% 30.00 in 10.0 mi North 4.6 mph - N/A   Clear
8:53 AM 63.0 °F 51.1 °F 65% 30.03 in 10.0 mi NNE 5.8 mph - N/A   Scattered Clouds
9:53 AM 66.0 °F 53.1 °F 63% 30.05 in 10.0 mi NE 8.1 mph - N/A   Partly Cloudy
10:53 AM 69.1 °F 53.1 °F 57% 30.06 in 10.0 mi NE 10.4 mph - N/A   Mostly Cloudy
11:53 AM 70.0 °F 54.0 °F 57% 30.08 in 10.0 mi Variable 4.6 mph - N/A   Mostly Cloudy
12:53 PM 73.0 °F 54.0 °F 51% 30.07 in 10.0 mi North 6.9 mph - N/A   Clear
1:53 PM 73.9 °F 55.0 °F 52% 30.06 in 10.0 mi Variable 3.5 mph - N/A   Mostly Cloudy
2:53 PM 75.0 °F 55.9 °F 51% 30.06 in 10.0 mi East 5.8 mph - N/A   Clear
3:53 PM 75.9 °F 57.9 °F 54% 30.04 in 10.0 mi ESE 5.8 mph - N/A   Mostly Cloudy
4:53 PM 73.0 °F 57.0 °F 57% 30.05 in 10.0 mi ESE 6.9 mph - N/A   Mostly Cloudy
5:53 PM 75.0 °F 57.9 °F 55% 30.06 in 10.0 mi ESE 8.1 mph - N/A   Scattered Clouds
6:53 PM 72.0 °F 57.0 °F 59% 30.06 in 10.0 mi ESE 6.9 mph - N/A   Clear
7:53 PM 70.0 °F 57.0 °F 63% 30.07 in 10.0 mi East 3.5 mph - N/A   Clear
9:53 PM 69.1 °F 57.9 °F 68% 30.10 in 10.0 mi East 4.6 mph - N/A   Mostly Cloudy
10:53 PM 66.9 °F 57.9 °F 73% 30.11 in 10.0 mi East 4.6 mph - N/A   Clear
11:53 PM 66.0 °F 59.0 °F 78% 30.12 in 10.0 mi ESE 5.8 mph - N/A   Clear